Station KNSW3 - Kenosha Light, Kenosha, WI Image indicating link to RSS feed of recent meteorological observations for station KNSW3


Conditions at KNSW3 as of
(3:00 am CDT)
0800 GMT on 04/17/2024:
     

Click on the graph icon in the table below to see a time series plot of the last five days of that observation.

5-day plot - Wind Direction Wind Direction (WDIR): E ( 90 deg true )
5-day plot - Wind Speed Wind Speed (WSPD): 13 kts
5-day plot - Wind Gust Wind Gust (GST): 15 kts
5-day plot - Atmospheric Pressure Atmospheric Pressure (PRES):29.61 in
5-day plot - Pressure Tendency Pressure Tendency (PTDY):-0.11 in ( Falling Rapidly )
5-day plot - Air Temperature Air Temperature (ATMP): 51.8 °F
5-day plot - Wind Chill Wind Chill (CHILL): 46.9 °F
5-day plot - Wind Speed at 10 Meters Wind Speed at 10 meters (WSPD10M): 12 kts
5-day plot - Wind Speed at 20 Meters Wind Speed at 20 meters (WSPD20M): 14 kts
5-day plot -  Wind Speed, Wind Gust and Atmospheric Pressure Combined plot of Wind Speed, Gust, and Air Pressure
Previous observations
TIME
(CDT)
5-day plot - Wind Direction
WDIR
 
5-day plot - Wind Speed
WSPD
kts
5-day plot - Wind Gust
GST
kts
5-day plot - Wave Height
WVHT
ft
5-day plot - Dominant Wave Period
DPD
sec
5-day plot - Average Wave Period
APD
sec
5-day plot - Mean Wave Direction
MWD
 
5-day plot - Atmospheric Pressure
PRES
in
5-day plot - Pressure Tendency
PTDY
in
5-day plot - Air Temperature
ATMP
°F
5-day plot - Water Temperature
WTMP
°F
5-day plot - Dew Point
DEWP
°F
5-day plot - Salinity
SAL
psu
5-day plot - Visibility
VIS
nmi
5-day plot - Tide (above MLLW)
TIDE
ft
2024-04-17 02:50 am E 15 16----29.60- 52.5-----
2024-04-17 02:40 am E 12 14----29.62- 49.8-----
2024-04-17 02:30 am E 11 15----29.63- 50.0-----
2024-04-17 02:20 am E 13 14----29.63- 51.1-----
2024-04-17 02:10 am E 13 15----29.63- 51.3-----
2024-04-17 02:00 am E 12 13----29.64-0.11 52.9-----
2024-04-17 01:50 am E 11 11----29.66- 51.6-----
2024-04-17 01:40 amESE 7 11----29.67- 51.4-----
2024-04-17 01:30 amESE 6 10----29.67- 51.8-----
2024-04-17 01:20 amESE 6 7----29.67- 52.5-----
2024-04-17 01:10 am E 5 6----29.70- 53.6-----
2024-04-17 01:00 amWNW 3 5----29.72-0.01 52.0-----
2024-04-17 12:50 amESE 5 8----29.71- 52.5-----
2024-04-17 12:40 amENE 3 4----29.70- 53.6-----
2024-04-17 12:30 am- 0 4----29.71- 52.0-----
2024-04-17 12:20 am E 5 7----29.70- 52.9-----
2024-04-17 12:10 amESE 5 7----29.72- 54.1-----
2024-04-17 12:00 am E 7 7----29.72-0.01 55.9-----
2024-04-16 11:50 pmESE 5 8----29.73- 57.0-----
2024-04-16 11:40 pm E 5 6----29.73- 58.6-----
2024-04-16 11:30 pmWNW 1 2----29.74- 59.5-----
2024-04-16 11:20 pm SW 1 3----29.74- 59.5-----
2024-04-16 11:10 pmWSW 3 13----29.74- 59.7-----
2024-04-16 11:00 pmWSW 12 14----29.75+0.05 54.3-----
2024-04-16 10:50 pm SE 8 11----29.71- 50.0-----
2024-04-16 10:40 pmSSE 9 13----29.71- 51.3-----
2024-04-16 10:30 pmSSE 9 10----29.71- 51.1-----
2024-04-16 10:20 pm S 5 8----29.72- 50.4-----
2024-04-16 10:10 pm SE 5 7----29.71- 50.0-----
2024-04-16 10:00 pm S 4 10----29.73+0.07 49.8-----
2024-04-16 09:50 pmESE 9 11----29.71- 50.4-----
2024-04-16 09:40 pmESE 7 10----29.73- 51.4-----
2024-04-16 09:30 pm SE 10 12----29.73- 51.8-----
2024-04-16 09:20 pm SE 8 12----29.72- 51.6-----
2024-04-16 09:10 pmESE 12 13----29.72- 50.5-----
2024-04-16 09:00 pm SE 9 10----29.73+0.00 50.4-----
2024-04-16 08:50 pm SE 7 9----29.73- 52.7-----
2024-04-16 08:40 pmSSE 9 11----29.73- 53.1-----
2024-04-16 08:30 pmSSE 8 12----29.73- 53.2-----
2024-04-16 08:20 pm SE 9 15----29.71- 53.4-----
2024-04-16 08:10 pmESE 10 13----29.70- 55.0-----
2024-04-16 08:00 pmESE 10 12----29.70-0.07 54.9-----
2024-04-16 07:50 pm S 5 9----29.71- 52.0-----
2024-04-16 07:40 pmESE 9 13----29.69- 52.5-----
2024-04-16 07:30 pm E 12 15----29.67- 53.4-----
2024-04-16 07:20 pm E 15 17----29.65- 54.5-----
2024-04-16 07:10 pm E 16 18----29.65- 55.0-----
2024-04-16 07:00 pmESE 16 18----29.66-0.12 54.7-----
2024-04-16 06:50 pm E 15 17----29.67- 54.1-----
2024-04-16 06:40 pm E 15 17----29.66- 53.6-----
2024-04-16 06:30 pm E 15 17----29.70- 54.1-----
2024-04-16 06:20 pm E 15 17----29.70- 52.9-----
2024-04-16 06:10 pmESE 14 16----29.74- 52.9-----
2024-04-16 06:00 pm E 13 15----29.73-0.10 52.0-----
2024-04-16 05:50 pm E 13 15----29.76- 51.6-----
2024-04-16 05:40 pm E 12 13----29.76- 51.3-----
2024-04-16 05:30 pm E 10 11----29.77- 51.1-----
2024-04-16 05:20 pm E 9 11----29.77- 50.4-----
2024-04-16 05:10 pm E 8 10----29.77- 50.5-----
2024-04-16 05:00 pm E 9 12----29.77-0.14 51.3-----
2024-04-16 04:50 pm E 11 13----29.77- 51.8-----
2024-04-16 04:40 pm E 12 15----29.75- 52.7-----
2024-04-16 04:30 pm E 14 15----29.75- 53.4-----
2024-04-16 04:20 pm E 14 15----29.76- 52.0-----
2024-04-16 04:10 pm E 13 15----29.76- 52.5-----
2024-04-16 04:00 pm E 12 14----29.78-0.17 52.0-----
2024-04-16 03:50 pm E 12 13----29.79- 52.0-----
2024-04-16 03:40 pm E 12 13----29.79- 51.6-----
2024-04-16 03:30 pm E 11 13----29.80- 51.1-----
2024-04-16 03:20 pm E 11 13----29.81- 51.3-----
2024-04-16 03:10 pm E 12 14----29.81- 50.9-----
2024-04-16 03:00 pm E 10 12----29.83-0.14 50.0-----
2024-04-16 02:50 pm E 10 11----29.85- 50.4-----
2024-04-16 02:40 pm E 8 10----29.86- 50.4-----
2024-04-16 02:30 pm E 4 6----29.88- 50.0-----
2024-04-16 02:20 pmNNE 3 6----29.89- 48.9-----
2024-04-16 02:10 pmNNE 4 5----29.89- 48.6-----
2024-04-16 02:00 pmNNE 4 5----29.91-0.11 48.7-----
2024-04-16 01:50 pmNNE 4 5----29.91- 48.6-----
2024-04-16 01:40 pmNNE 4 5----29.92- 48.2-----
2024-04-16 01:30 pmNNE 5 6----29.93- 48.2-----
2024-04-16 01:20 pmNNE 4 4----29.93- 48.0-----
2024-04-16 01:10 pm NE 3 4----29.95- 47.8-----
2024-04-16 01:00 pm NE 3 4----29.95-0.11 47.7-----
2024-04-16 12:50 pm NE 3 4----29.96- 47.5-----
2024-04-16 12:40 pmENE 4 5----29.96- 47.7-----
2024-04-16 12:30 pmENE 5 7----29.97- 47.7-----
2024-04-16 12:20 pmENE 6 8----29.97- 47.7-----
2024-04-16 12:10 pmENE 7 9----29.97- 47.5-----
2024-04-16 12:00 pmENE 8 10----29.97-0.09 47.1-----
2024-04-16 11:50 amENE 9 10----29.97- 46.4-----
2024-04-16 11:40 amENE 9 10----29.99- 46.4-----
2024-04-16 11:30 amENE 9 11----29.99- 46.4-----
2024-04-16 11:20 amENE 9 11----29.99- 46.0-----
2024-04-16 11:10 amENE 8 9----30.01- 46.2-----
2024-04-16 11:00 am E 7 10----30.02-0.04 46.8-----
2024-04-16 10:50 am E 8 10----30.02- 46.4-----
2024-04-16 10:40 amENE 7 9----30.02- 45.9-----
2024-04-16 10:30 amENE 7 8----30.03- 45.5-----
2024-04-16 10:20 amENE 5 7----30.04- 45.7-----
2024-04-16 10:10 amENE 4 6----30.04- 45.9-----
2024-04-16 10:00 am E 3 4----30.06+0.00 46.9-----
2024-04-16 09:50 am E 3 4----30.06- 46.9-----
2024-04-16 09:40 amENE 1 4----30.06- 46.8-----
2024-04-16 09:30 am- 0 4----30.06- 46.2-----
2024-04-16 09:20 amENE 2 5----30.07- 46.4-----
2024-04-16 09:10 amENE 4 7----30.06- 45.9-----
2024-04-16 09:00 amENE 5 6----30.06-0.01 45.9-----
2024-04-16 08:50 am NE 4 5----30.06- 45.7-----
2024-04-16 08:40 am NE 4 5----30.06- 45.3-----
2024-04-16 08:30 am NE 4 6----30.06- 45.3-----
2024-04-16 08:20 amNNE 5 6----30.06- 45.3-----
2024-04-16 08:10 am NE 5 6----30.06- 45.5-----
2024-04-16 08:00 am NE 5 7----30.06+0.01 45.3-----
2024-04-16 07:50 am NE 6 7----30.06- 45.1-----
2024-04-16 07:40 am NE 6 7----30.05- 45.3-----
2024-04-16 07:30 am NE 5 6----30.06- 45.3-----
2024-04-16 07:20 am NE 6 7----30.06- 45.5-----
2024-04-16 07:10 am NE 6 7----30.05- 45.9-----
2024-04-16 07:00 am NE 6 7----30.06+0.00 46.4-----
2024-04-16 06:50 am NE 5 7----30.06- 47.1-----
2024-04-16 06:40 am NE 4 5----30.07- 46.2-----
2024-04-16 06:30 am NE 4 5----30.07- 45.9-----
2024-04-16 06:20 amNNE 3 3----30.07- 45.7-----
2024-04-16 06:10 amNNE 2 2----30.07- 45.7-----
2024-04-16 06:00 amENE 1 2----30.07+0.01 45.5-----
2024-04-16 05:50 amENE 2 3----30.08- 45.5-----
2024-04-16 05:40 am NE 3 4----30.07- 45.7-----
2024-04-16 05:30 amENE 3 4----30.07- 45.9-----
2024-04-16 05:20 amENE 4 5----30.07- 46.0-----
2024-04-16 05:10 amENE 4 5----30.06- 46.0-----
2024-04-16 05:00 amENE 4 5----30.05-0.02 46.0-----
2024-04-16 04:50 amENE 4 5----30.05- 46.0-----
2024-04-16 04:40 amENE 4 5----30.05- 46.2-----
2024-04-16 04:30 amENE 4 5----30.05- 46.4-----
2024-04-16 04:20 amENE 4 6----30.05- 46.6-----
2024-04-16 04:10 amENE 5 6----30.05- 46.8-----
2024-04-16 04:00 am NE 5 6----30.06-0.01 47.1-----
2024-04-16 03:50 am NE 6 7----30.06- 47.1-----
2024-04-16 03:40 am NE 5 6----30.06- 46.8-----
2024-04-16 03:30 amNNE 5 7----30.07- 46.6-----
2024-04-16 03:20 amNNE 6 8----30.06- 46.6-----
2024-04-16 03:10 am NE 7 8----30.06- 47.3-----
2024-04-16 03:00 amNNE 6 7----30.06-0.03 46.6-----
2024-04-16 02:50 amNNE 6 7----30.07- 46.6-----